Location: Proctor
(47.8934°N, 114.3048°W)
Time: 07:31:58
(UTC+00:00)

Vanguard 2 Rocket - Pass Details

Date: 17 June 2024
Orbit: 555 x 3303 km, 32.9° (Epoch: 13 July)

Event Time Altitude Azimuth Distance (km) Brightness Sun altitude
Exits shadow 09:43:28 12° 192° (SSW) 6,056 10.5 -13.4°
Maximum altitude 09:56:44 26° 148° (SSE) 4,830 10.3 -12.2°
Drops below altitude 10° 10:09:14 10° 101° (E) 5,383 11.1 -11.1°
Sets 10:13:49 0° 89° (E) 6,023 11.6 -10.6°
